contact:dominique.lefevre@mio.osupytheas.fr, maurice.libes@osupytheas.fr, didier.mallarino@osupytheas.fr
Project:EMSO http://www.emso-fr.org/EMSO-France
Depth: 2436.0 m
Title:EMSO Ligure Ouest : Data MII capteur AQUADOPP
Date,Latitude,Longitude,X_East,Y_North,Z_Up,Amplitude_X,Amplitude_Y,Amplitude_Z,Batterie,SoundSpeed,Heading,Pitch,Roll,Pressure,TIS,Speed,Direction
, degrees North, degrees East, m.s-1, m.s-1,m.s-1, 1, 1, 1, Volt, m.s-1, degree, degree, degree, dbar, degree_C, m.s-1, degree
2019-07-09T00:00:00,42.805,6.029,0.012,0.001,-0.016,103.0,107.0,99.0,13.3,1505.3,323.5,-0.7,1.9,2470.227,13.33,0.012,85.2
2019-07-09T00:09:04,42.805,6.029,0.004,-0.009,-0.025,104.0,104.0,97.0,13.4,1505.2,327.6,-0.8,1.8,2470.271,13.3,0.009,156.0
2019-07-09T00:12:05,42.805,6.029,-0.013,-0.005,-0.054,102.0,104.0,99.0,13.4,1505.3,325.2,-0.8,1.8,2470.243,13.31,0.013,249.0
2019-07-09T00:15:06,42.805,6.029,0.014,-0.002,-0.034,102.0,104.0,98.0,13.4,1505.3,327.8,-0.7,1.9,2470.226,13.32,0.014,98.1
2019-07-09T00:18:07,42.805,6.029,-0.007,-0.005,-0.02,101.0,103.0,99.0,13.3,1505.3,324.8,-0.7,1.8,2470.229,13.32,0.008,234.5
2019-07-09T00:21:08,42.805,6.029,-0.002,-0.018,-0.019,103.0,105.0,99.0,13.4,1505.3,324.1,-0.7,1.8,2470.253,13.32,0.018,186.3
2019-07-09T00:24:09,42.805,6.029,0.015,-0.011,-0.036,102.0,105.0,99.0,13.4,1505.3,326.8,-0.7,1.9,2470.271,13.33,0.018,126.3
2019-07-09T00:27:10,42.805,6.029,-0.043,-0.016,-0.053,101.0,105.0,98.0,13.4,1505.3,325.6,-0.7,1.8,2470.26,13.33,0.045,249.6
2019-07-09T00:30:11,42.805,6.029,-0.024,-0.005,-0.042,103.0,106.0,98.0,13.4,1505.3,323.0,-0.7,1.9,2470.207,13.33,0.024,258.2
2019-07-09T00:33:12,42.805,6.029,-0.003,-0.008,-0.036,102.0,106.0,97.0,13.4,1505.3,325.0,-0.7,1.8,2470.204,13.33,0.008,200.6
2019-07-09T00:36:13,42.805,6.029,-0.023,-0.02,-0.024,103.0,106.0,99.0,13.4,1505.3,322.9,-0.8,1.8,2470.189,13.33,0.03,229.0
2019-07-09T00:39:14,42.805,6.029,-0.007,-0.021,-0.037,101.0,105.0,100.0,13.3,1505.3,325.4,-0.7,1.9,2470.216,13.33,0.022,198.4
2019-07-09T00:42:15,42.805,6.029,-0.025,-0.015,-0.027,102.0,105.0,98.0,13.3,1505.3,328.3,-0.7,1.8,2470.242,13.33,0.029,239.0
2019-07-09T00:45:16,42.805,6.029,0.0,-0.001,-0.022,101.0,106.0,99.0,13.4,1505.3,326.4,-0.8,1.8,2470.219,13.33,0.001,180.0
2019-07-09T00:48:17,42.805,6.029,0.011,0.0,-0.034,101.0,106.0,98.0,13.4,1505.3,328.2,-0.7,1.8,2470.195,13.33,0.011,90.0
2019-07-09T00:51:18,42.805,6.029,0.007,-0.011,-0.024,99.0,105.0,102.0,13.4,1505.3,325.4,-0.7,1.8,2470.175,13.33,0.013,147.5
2019-07-09T00:54:19,42.805,6.029,0.008,0.004,-0.034,103.0,106.0,97.0,13.3,1505.3,327.6,-0.7,1.8,2470.208,13.33,0.008,63.4
2019-07-09T00:57:20,42.805,6.029,-0.015,-0.003,-0.003,101.0,106.0,98.0,13.4,1505.3,324.5,-0.7,1.9,2470.186,13.33,0.015,258.7
2019-07-09T01:00:21,42.805,6.029,0.014,0.0,-0.023,100.0,104.0,98.0,13.4,1505.3,323.8,-0.7,1.8,2470.225,13.33,0.014,90.0
2019-07-09T01:03:22,42.805,6.029,0.002,-0.017,-0.016,103.0,105.0,99.0,13.4,1505.3,325.8,-0.7,1.9,2470.171,13.33,0.017,173.3
2019-07-09T01:06:23,42.805,6.029,-0.018,0.002,-0.047,101.0,105.0,98.0,13.4,1505.3,326.4,-0.7,1.8,2470.188,13.33,0.018,276.3
2019-07-09T01:09:24,42.805,6.029,-0.011,-0.011,-0.021,101.0,106.0,98.0,13.3,1505.3,325.6,-0.7,1.9,2470.211,13.33,0.015,225.0
2019-07-09T01:12:25,42.805,6.029,0.012,-0.016,-0.038,108.0,106.0,99.0,13.4,1505.3,323.6,-0.7,1.8,2470.181,13.33,0.02,143.1
2019-07-09T01:15:26,42.805,6.029,-0.003,-0.018,-0.045,108.0,105.0,97.0,13.3,1505.3,326.1,-0.7,1.8,2470.228,13.33,0.018,189.5
2019-07-09T01:18:27,42.805,6.029,-0.013,0.0,-0.073,103.0,104.0,98.0,13.3,1505.3,325.1,-0.8,1.8,2470.174,13.33,0.013,270.0
2019-07-09T01:21:28,42.805,6.029,0.009,-0.011,-0.04,100.0,105.0,99.0,13.4,1505.3,327.1,-0.7,1.9,2470.194,13.33,0.014,140.7
2019-07-09T01:24:29,42.805,6.029,-0.013,-0.004,0.003,101.0,105.0,101.0,13.3,1505.3,322.9,-0.7,1.8,2470.195,13.33,0.013,252.9
2019-07-09T01:27:30,42.805,6.029,-0.022,-0.014,-0.058,102.0,105.0,99.0,13.4,1505.3,327.8,-0.7,1.8,2470.161,13.33,0.026,237.5
2019-07-09T01:30:31,42.805,6.029,0.01,-0.014,-0.013,101.0,105.0,98.0,13.4,1505.3,326.3,-0.7,1.9,2470.157,13.33,0.017,144.5
2019-07-09T01:33:32,42.805,6.029,-0.029,-0.012,-0.027,103.0,105.0,97.0,13.4,1505.3,323.8,-0.7,1.9,2470.204,13.33,0.031,247.5
2019-07-09T01:36:33,42.805,6.029,-0.041,-0.014,-0.073,101.0,104.0,96.0,13.3,1505.3,326.7,-0.7,1.8,2470.18,13.33,0.043,251.1
2019-07-09T01:39:34,42.805,6.029,-0.021,-0.022,-0.037,102.0,106.0,99.0,13.4,1505.3,324.7,-0.7,1.8,2470.216,13.33,0.03,223.7
2019-07-09T01:42:35,42.805,6.029,-0.023,-0.009,-0.052,101.0,104.0,98.0,13.4,1505.3,327.0,-0.7,1.9,2470.217,13.33,0.024,248.6
2019-07-09T01:45:36,42.805,6.029,-0.018,-0.004,-0.034,101.0,105.0,97.0,13.4,1505.3,323.8,-0.7,1.9,2470.166,13.33,0.018,257.5
2019-07-09T01:48:37,42.805,6.029,-0.015,0.0,-0.056,100.0,105.0,98.0,13.4,1505.3,328.4,-0.7,1.8,2470.202,13.33,0.015,270.0
2019-07-09T01:51:38,42.805,6.029,-0.033,-0.015,-0.06,100.0,105.0,98.0,13.4,1505.3,324.3,-0.7,1.8,2470.159,13.33,0.036,245.6
2019-07-09T01:54:39,42.805,6.029,-0.051,-0.016,-0.081,101.0,105.0,99.0,13.4,1505.3,326.4,-0.7,1.9,2470.159,13.33,0.053,252.6
2019-07-09T01:57:40,42.805,6.029,-0.032,0.005,-0.07,101.0,106.0,97.0,13.4,1505.3,323.5,-0.7,1.9,2470.179,13.33,0.032,278.9
2019-07-09T02:00:41,42.805,6.029,-0.032,-0.005,-0.036,102.0,104.0,98.0,13.3,1505.3,328.4,-0.7,1.8,2470.191,13.33,0.032,261.1
2019-07-09T02:03:42,42.805,6.029,-0.029,-0.011,-0.063,102.0,105.0,99.0,13.4,1505.3,325.4,-0.7,1.8,2470.167,13.33,0.031,249.2
2019-07-09T02:06:43,42.805,6.029,-0.035,-0.034,-0.05,103.0,103.0,99.0,13.4,1505.3,326.6,-0.7,1.8,2470.159,13.33,0.048,225.8
2019-07-09T02:09:44,42.805,6.029,-0.026,-0.006,-0.033,101.0,105.0,99.0,13.4,1505.3,322.7,-0.8,1.8,2470.167,13.33,0.026,257.0
2019-07-09T02:12:45,42.805,6.029,-0.016,-0.021,-0.105,101.0,105.0,97.0,13.4,1505.3,326.8,-0.7,1.8,2470.151,13.33,0.026,217.3
2019-07-09T02:15:46,42.805,6.029,-0.021,-0.019,-0.098,101.0,106.0,98.0,13.4,1505.3,325.9,-0.7,1.9,2470.184,13.33,0.028,227.9
2019-07-09T02:18:47,42.805,6.029,-0.027,-0.003,-0.058,103.0,105.0,97.0,13.4,1505.3,323.3,-0.7,1.9,2470.141,13.33,0.027,263.7
2019-07-09T02:21:48,42.805,6.029,-0.043,-0.037,-0.057,102.0,106.0,98.0,13.3,1505.3,327.7,-0.8,1.9,2470.126,13.33,0.056,229.3
2019-07-09T02:24:49,42.805,6.029,-0.002,0.001,-0.043,103.0,104.0,99.0,13.4,1505.3,325.5,-0.7,1.8,2470.131,13.33,0.002,296.6
2019-07-09T02:27:50,42.805,6.029,-0.029,-0.008,-0.044,99.0,105.0,99.0,13.3,1505.3,323.2,-0.7,1.9,2470.154,13.33,0.03,254.6
2019-07-09T02:30:51,42.805,6.029,-0.035,-0.007,-0.029,101.0,107.0,98.0,13.4,1505.3,326.4,-0.7,1.8,2470.151,13.33,0.035,258.7
2019-07-09T02:33:52,42.805,6.029,-0.043,-0.021,-0.049,102.0,106.0,98.0,13.3,1505.3,326.5,-0.7,1.8,2470.185,13.33,0.047,244.0
2019-07-09T02:36:53,42.805,6.029,-0.007,-0.015,-0.083,101.0,104.0,99.0,13.4,1505.3,323.6,-0.7,1.9,2470.115,13.33,0.016,205.0
2019-07-09T02:39:54,42.805,6.029,-0.028,-0.033,-0.072,100.0,105.0,99.0,13.3,1505.3,328.2,-0.7,1.8,2470.161,13.33,0.043,220.3
2019-07-09T02:42:55,42.805,6.029,-0.052,-0.003,-0.046,101.0,105.0,99.0,13.4,1505.3,325.7,-0.7,1.8,2470.16,13.33,0.052,266.7
2019-07-09T02:45:56,42.805,6.029,-0.045,-0.03,-0.073,100.0,106.0,100.0,13.4,1505.3,326.8,-0.7,1.8,2470.181,13.33,0.054,236.3
2019-07-09T02:48:57,42.805,6.029,0.002,-0.005,-0.055,103.0,107.0,99.0,13.3,1505.3,324.9,-0.7,1.8,2470.161,13.33,0.005,158.2
2019-07-09T02:51:58,42.805,6.029,0.012,-0.015,-0.031,102.0,105.0,100.0,13.3,1505.3,325.2,-0.7,1.8,2470.157,13.33,0.019,141.3
2019-07-09T02:54:59,42.805,6.029,-0.009,0.003,-0.02,101.0,106.0,99.0,13.4,1505.3,323.4,-0.7,1.8,2470.146,13.33,0.009,288.4
2019-07-09T02:58:00,42.805,6.029,0.008,-0.001,-0.032,102.0,106.0,99.0,13.3,1505.3,327.5,-0.7,1.8,2470.184,13.33,0.008,97.1
2019-07-09T03:01:01,42.805,6.029,0.01,-0.02,-0.008,102.0,107.0,98.0,13.4,1505.3,325.3,-0.7,1.9,2470.178,13.33,0.022,153.4
2019-07-09T03:04:02,42.805,6.029,0.018,0.009,-0.026,101.0,107.0,99.0,13.4,1505.3,327.8,-0.7,1.9,2470.106,13.33,0.02,63.4
2019-07-09T03:07:03,42.805,6.029,-0.005,0.007,-0.044,100.0,106.0,99.0,13.3,1505.3,324.3,-0.7,1.9,2470.144,13.33,0.008,324.5
2019-07-09T03:10:04,42.805,6.029,0.022,-0.004,-0.024,100.0,105.0,98.0,13.4,1505.3,323.5,-0.7,1.9,2470.149,13.33,0.022,100.3
2019-07-09T03:13:05,42.805,6.029,0.018,0.0,0.001,101.0,105.0,99.0,13.4,1505.3,325.0,-0.7,1.8,2470.112,13.33,0.018,90.0
2019-07-09T03:16:06,42.805,6.029,0.038,-0.008,0.01,101.0,106.0,97.0,13.3,1505.3,324.9,-0.7,1.8,2470.155,13.33,0.038,101.9
2019-07-09T03:19:07,42.805,6.029,0.033,0.006,0.017,100.0,106.0,97.0,13.4,1505.3,327.6,-0.8,1.8,2470.162,13.33,0.033,79.7
2019-07-09T03:22:08,42.805,6.029,0.01,-0.018,-0.014,100.0,106.0,98.0,13.3,1505.3,327.0,-0.7,1.8,2470.159,13.33,0.02,150.9
2019-07-09T03:25:09,42.805,6.029,0.028,-0.006,-0.01,101.0,106.0,98.0,13.3,1505.3,326.0,-0.7,1.8,2470.141,13.33,0.028,102.1
2019-07-09T03:28:10,42.805,6.029,0.03,0.0,-0.009,101.0,104.0,97.0,13.3,1505.3,322.9,-0.7,1.8,2470.135,13.33,0.03,90.0
2019-07-09T03:31:11,42.805,6.029,0.016,-0.014,0.003,100.0,104.0,100.0,13.3,1505.3,326.9,-0.7,1.8,2470.123,13.33,0.021,131.2
2019-07-09T03:34:12,42.805,6.029,0.03,-0.013,-0.002,101.0,104.0,98.0,13.4,1505.3,327.0,-0.7,1.8,2470.097,13.33,0.032,113.4
2019-07-09T03:37:13,42.805,6.029,0.04,-0.006,0.009,100.0,104.0,97.0,13.4,1505.3,325.9,-0.7,1.9,2470.154,13.33,0.04,98.5
2019-07-09T03:40:14,42.805,6.029,0.032,0.0,-0.002,100.0,103.0,99.0,13.3,1505.3,325.0,-0.7,1.8,2470.137,13.33,0.032,90.0
2019-07-09T03:43:15,42.805,6.029,0.028,-0.012,-0.027,100.0,105.0,98.0,13.4,1505.3,322.8,-0.7,1.8,2470.097,13.33,0.03,113.2
2019-07-09T03:46:16,42.805,6.029,0.02,-0.009,-0.032,101.0,104.0,97.0,13.4,1505.3,327.6,-0.7,1.8,2470.077,13.33,0.021,114.2
2019-07-09T03:49:17,42.805,6.029,0.018,-0.008,0.015,101.0,103.0,98.0,13.4,1505.3,324.8,-0.7,1.8,2470.122,13.33,0.019,114.0
2019-07-09T03:52:18,42.805,6.029,0.012,0.001,-0.011,101.0,103.0,98.0,13.3,1505.3,323.1,-0.7,1.8,2470.129,13.33,0.012,85.2
2019-07-09T03:55:19,42.805,6.029,0.015,0.011,-0.018,102.0,105.0,98.0,13.4,1505.3,324.6,-0.7,1.9,2470.102,13.33,0.018,53.7
2019-07-09T03:58:20,42.805,6.029,0.017,-0.002,-0.025,102.0,105.0,98.0,13.4,1505.3,327.0,-0.7,1.8,2470.12,13.33,0.017,96.7
2019-07-09T04:01:21,42.805,6.029,0.011,-0.018,-0.013,103.0,104.0,99.0,13.4,1505.3,324.3,-0.7,1.8,2470.163,13.33,0.021,148.6
2019-07-09T04:04:22,42.805,6.029,0.026,-0.002,-0.008,102.0,105.0,98.0,13.4,1505.3,326.5,-0.7,1.9,2470.107,13.33,0.026,94.4
2019-07-09T04:07:23,42.805,6.029,0.026,-0.016,-0.03,101.0,104.0,99.0,13.4,1505.3,326.8,-0.7,1.8,2470.098,13.33,0.03,121.6
2019-07-09T04:10:24,42.805,6.029,0.025,0.004,0.007,103.0,103.0,98.0,13.4,1505.3,326.1,-0.7,1.8,2470.071,13.33,0.025,80.9
2019-07-09T04:13:25,42.805,6.029,0.005,-0.024,-0.008,103.0,103.0,99.0,13.4,1505.3,326.4,-0.7,1.9,2470.071,13.33,0.024,168.2
2019-07-09T04:16:26,42.805,6.029,0.029,-0.008,0.0,102.0,104.0,99.0,13.3,1505.3,327.9,-0.8,1.8,2470.101,13.33,0.03,105.4
2019-07-09T04:19:27,42.805,6.029,0.022,-0.009,0.002,102.0,105.0,96.0,13.4,1505.3,325.2,-0.7,1.9,2470.077,13.33,0.023,112.2
2019-07-09T04:22:28,42.805,6.029,0.015,-0.006,-0.033,101.0,103.0,98.0,13.4,1505.3,327.1,-0.7,1.8,2470.092,13.33,0.016,111.8
2019-07-09T04:25:29,42.805,6.029,0.028,-0.019,-0.026,107.0,104.0,98.0,13.4,1505.3,322.8,-0.7,1.8,2470.115,13.33,0.033,124.2
2019-07-09T04:28:30,42.805,6.029,0.029,0.0,-0.005,101.0,105.0,99.0,13.3,1505.3,327.0,-0.7,1.8,2470.084,13.33,0.028,90.0
2019-07-09T04:31:31,42.805,6.029,0.005,-0.011,-0.022,101.0,104.0,99.0,13.3,1505.3,327.5,-0.7,1.8,2470.089,13.33,0.012,155.6
2019-07-09T04:34:32,42.805,6.029,0.037,0.007,-0.012,103.0,104.0,98.0,13.3,1505.3,327.0,-0.7,1.8,2470.027,13.33,0.037,79.3
2019-07-09T04:37:33,42.805,6.029,0.034,-0.013,-0.023,103.0,104.0,99.0,13.4,1505.3,324.2,-0.7,1.8,2470.051,13.33,0.036,110.9
2019-07-09T04:40:34,42.805,6.029,0.035,0.001,-0.021,102.0,105.0,98.0,13.3,1505.3,326.6,-0.7,1.9,2470.082,13.33,0.035,88.4
2019-07-09T04:43:35,42.805,6.029,0.042,-0.002,0.038,102.0,104.0,98.0,13.3,1505.3,326.6,-0.7,1.8,2470.085,13.33,0.042,92.7
2019-07-09T04:46:36,42.805,6.029,0.011,-0.006,0.002,102.0,104.0,99.0,13.3,1505.3,323.5,-0.7,1.8,2470.076,13.33,0.012,118.6
2019-07-09T04:49:37,42.805,6.029,0.025,-0.002,-0.017,103.0,105.0,99.0,13.3,1505.3,327.7,-0.7,1.9,2470.094,13.33,0.025,94.6
2019-07-09T04:52:38,42.805,6.029,0.017,-0.001,0.014,103.0,104.0,99.0,13.3,1505.3,324.9,-0.7,1.8,2470.045,13.33,0.017,93.4
2019-07-09T04:55:39,42.805,6.029,0.028,-0.006,-0.013,103.0,105.0,99.0,13.4,1505.3,323.0,-0.7,1.8,2470.072,13.33,0.028,102.1
2019-07-09T04:58:40,42.805,6.029,0.01,-0.011,0.023,103.0,104.0,99.0,13.3,1505.3,327.9,-0.7,1.9,2470.077,13.33,0.014,137.7
2019-07-09T05:01:41,42.805,6.029,0.025,-0.011,-0.012,104.0,105.0,99.0,13.3,1505.3,327.2,-0.8,1.8,2470.082,13.33,0.027,113.7
2019-07-09T05:04:42,42.805,6.029,0.008,-0.012,-0.031,103.0,104.0,99.0,13.3,1505.3,326.7,-0.7,1.8,2470.073,13.33,0.014,146.3
2019-07-09T05:07:43,42.805,6.029,0.006,0.009,-0.036,102.0,104.0,97.0,13.3,1505.3,324.4,-0.7,1.9,2470.1,13.33,0.01,33.7
2019-07-09T05:10:44,42.805,6.029,0.012,0.0,-0.006,104.0,104.0,100.0,13.3,1505.3,325.3,-0.7,1.8,2470.081,13.33,0.012,90.0
2019-07-09T05:13:45,42.805,6.029,0.003,0.002,-0.029,101.0,104.0,99.0,13.4,1505.3,325.9,-0.7,1.8,2470.077,13.33,0.003,56.3
2019-07-09T05:16:46,42.805,6.029,-0.002,-0.002,-0.022,103.0,104.0,99.0,13.3,1505.3,324.6,-0.8,1.8,2470.041,13.33,0.002,225.0
2019-07-09T05:19:47,42.805,6.029,0.005,-0.016,-0.046,105.0,104.0,98.0,13.4,1505.3,326.5,-0.7,1.8,2470.052,13.33,0.016,162.6
2019-07-09T05:22:48,42.805,6.029,0.001,-0.005,-0.01,103.0,104.0,99.0,13.4,1505.3,323.3,-0.7,1.8,2470.081,13.33,0.005,168.7
2019-07-09T05:25:49,42.805,6.029,0.025,0.008,-0.007,102.0,106.0,98.0,13.4,1505.3,323.3,-0.7,1.8,2470.049,13.33,0.026,72.3
2019-07-09T05:28:50,42.805,6.029,0.023,-0.004,-0.026,102.0,106.0,100.0,13.4,1505.3,327.8,-0.7,1.8,2470.094,13.33,0.023,99.9
2019-07-09T05:31:51,42.805,6.029,0.011,0.004,-0.015,103.0,105.0,99.0,13.3,1505.3,325.2,-0.7,1.8,2470.043,13.33,0.011,70.0
2019-07-09T05:34:52,42.805,6.029,0.013,0.001,-0.018,102.0,106.0,100.0,13.4,1505.3,324.1,-0.7,1.8,2470.061,13.33,0.013,85.6
2019-07-09T05:37:53,42.805,6.029,0.014,-0.017,-0.017,104.0,106.0,100.0,13.4,1505.3,324.4,-0.7,1.8,2470.061,13.33,0.022,140.5
2019-07-09T05:40:54,42.805,6.029,0.03,0.01,-0.006,105.0,106.0,99.0,13.4,1505.3,327.6,-0.7,1.8,2470.043,13.33,0.031,71.6
2019-07-09T05:43:55,42.805,6.029,0.012,-0.003,-0.009,103.0,107.0,100.0,13.4,1505.3,325.8,-0.7,1.9,2470.074,13.33,0.012,104.0
2019-07-09T05:46:56,42.805,6.029,0.018,-0.01,-0.028,106.0,105.0,99.0,13.4,1505.3,326.5,-0.7,1.8,2470.031,13.33,0.02,119.1
2019-07-09T05:49:57,42.805,6.029,0.018,-0.008,-0.038,104.0,106.0,101.0,13.4,1505.3,325.3,-0.7,1.9,2470.033,13.33,0.019,114.0
2019-07-09T05:52:58,42.805,6.029,0.002,-0.016,-0.039,104.0,107.0,101.0,13.3,1505.3,326.5,-0.7,1.8,2470.048,13.33,0.016,172.9
2019-07-09T05:55:59,42.805,6.029,-0.003,-0.001,-0.035,102.0,108.0,100.0,13.4,1505.3,323.5,-0.7,1.8,2470.022,13.33,0.003,251.6
2019-07-09T05:59:00,42.805,6.029,0.012,-0.026,-0.006,105.0,105.0,100.0,13.3,1505.3,325.3,-0.7,1.8,2470.018,13.33,0.028,155.2
2019-07-09T06:02:01,42.805,6.029,-0.031,-0.011,-0.029,105.0,106.0,99.0,13.4,1505.3,325.9,-0.7,1.8,2470.038,13.33,0.032,250.5
2019-07-09T06:05:02,42.805,6.029,0.019,-0.008,-0.025,103.0,106.0,101.0,13.3,1505.3,324.5,-0.7,1.8,2470.046,13.33,0.02,112.8
2019-07-09T06:08:03,42.805,6.029,0.013,-0.008,-0.01,102.0,106.0,98.0,13.3,1505.3,326.0,-0.7,1.9,2470.025,13.33,0.015,121.6
2019-07-09T06:11:04,42.805,6.029,0.043,0.001,-0.038,103.0,106.0,99.0,13.4,1505.3,324.8,-0.7,1.9,2470.035,13.33,0.043,88.7
2019-07-09T06:14:05,42.805,6.029,0.017,-0.011,0.009,104.0,105.0,99.0,13.4,1505.3,325.4,-0.7,1.8,2470.021,13.33,0.02,122.9
2019-07-09T06:17:06,42.805,6.029,0.006,-0.004,-0.027,104.0,107.0,100.0,13.3,1505.3,324.4,-0.7,1.9,2470.058,13.33,0.007,123.7
2019-07-09T06:20:07,42.805,6.029,-0.014,-0.003,-0.048,104.0,107.0,99.0,13.4,1505.3,324.2,-0.7,1.9,2470.093,13.33,0.014,257.9
2019-07-09T06:23:08,42.805,6.029,-0.001,-0.009,-0.003,104.0,107.0,101.0,13.3,1505.3,326.9,-0.7,1.9,2470.05,13.33,0.009,186.3
2019-07-09T06:26:09,42.805,6.029,0.015,-0.002,-0.013,104.0,107.0,100.0,13.4,1505.3,325.1,-0.7,1.8,2470.034,13.33,0.015,97.6
2019-07-09T06:29:10,42.805,6.029,0.02,-0.016,-0.016,104.0,108.0,99.0,13.3,1505.3,326.6,-0.7,1.8,2470.052,13.33,0.025,128.7
2019-07-09T06:32:11,42.805,6.029,0.008,-0.008,-0.029,104.0,108.0,100.0,13.4,1505.3,322.7,-0.8,1.8,2470.012,13.33,0.011,135.0
2019-07-09T06:35:12,42.805,6.029,0.015,-0.005,-0.017,103.0,108.0,100.0,13.4,1505.3,323.2,-0.7,1.8,2470.048,13.33,0.015,108.4
2019-07-09T06:38:13,42.805,6.029,0.015,-0.001,-0.028,104.0,106.0,100.0,13.4,1505.3,328.2,-0.7,1.9,2469.984,13.33,0.015,93.8
2019-07-09T06:41:14,42.805,6.029,0.02,-0.009,-0.022,106.0,106.0,101.0,13.3,1505.3,324.9,-0.7,1.9,2470.053,13.33,0.021,114.2
2019-07-09T06:44:15,42.805,6.029,0.021,0.0,-0.004,102.0,106.0,101.0,13.3,1505.3,326.9,-0.7,1.9,2470.034,13.33,0.021,90.0
2019-07-09T06:47:16,42.805,6.029,0.014,-0.011,-0.001,104.0,108.0,99.0,13.3,1505.3,323.1,-0.7,1.8,2470.0,13.33,0.017,128.2
2019-07-09T06:50:17,42.805,6.029,-0.027,-0.022,-0.015,104.0,107.0,100.0,13.4,1505.3,326.8,-0.7,1.8,2470.02,13.33,0.034,230.8
2019-07-09T06:53:18,42.805,6.029,0.013,-0.01,-0.024,104.0,107.0,100.0,13.4,1505.3,324.9,-0.7,1.8,2469.997,13.33,0.016,127.6
2019-07-09T06:56:19,42.805,6.029,0.023,-0.013,-0.023,106.0,108.0,100.0,13.4,1505.3,326.3,-0.7,1.8,2470.009,13.33,0.026,119.5
2019-07-09T06:59:20,42.805,6.029,0.018,-0.015,-0.013,103.0,108.0,100.0,13.4,1505.3,323.6,-0.8,1.8,2470.013,13.33,0.023,129.8
2019-07-09T07:02:21,42.805,6.029,0.016,-0.005,0.006,104.0,108.0,100.0,13.3,1505.3,326.6,-0.7,1.8,2470.025,13.33,0.016,107.4
2019-07-09T07:05:22,42.805,6.029,0.026,-0.028,-0.029,105.0,107.0,99.0,13.4,1505.3,328.6,-0.7,1.9,2470.008,13.33,0.038,137.1
2019-07-09T07:08:23,42.805,6.029,0.004,-0.01,-0.034,104.0,108.0,100.0,13.4,1505.3,324.3,-0.7,1.8,2470.012,13.33,0.01,158.2
2019-07-09T07:11:24,42.805,6.029,0.013,0.013,-0.012,104.0,106.0,101.0,13.4,1505.3,325.6,-0.7,1.8,2469.965,13.33,0.018,45.0
2019-07-09T07:14:25,42.805,6.029,0.017,-0.007,-0.026,103.0,108.0,100.0,13.4,1505.3,323.6,-0.7,1.9,2469.986,13.33,0.018,112.4
2019-07-09T07:17:26,42.805,6.029,0.025,0.005,-0.017,103.0,107.0,100.0,13.3,1505.3,324.2,-0.7,1.9,2469.989,13.33,0.025,78.7
2019-07-09T07:20:27,42.805,6.029,0.014,0.0,-0.015,103.0,108.0,100.0,13.4,1505.3,325.1,-0.8,1.8,2470.003,13.33,0.014,90.0
2019-07-09T07:23:28,42.805,6.029,0.017,0.0,-0.032,103.0,108.0,100.0,13.3,1505.3,326.5,-0.7,1.8,2470.011,13.33,0.017,90.0
2019-07-09T07:26:29,42.805,6.029,0.009,-0.007,0.0,104.0,107.0,100.0,13.4,1505.3,325.6,-0.7,1.8,2470.037,13.33,0.011,127.9
2019-07-09T07:29:30,42.805,6.029,-0.002,-0.008,-0.024,104.0,108.0,100.0,13.3,1505.3,327.7,-0.7,1.9,2469.986,13.33,0.008,194.0
2019-07-09T07:32:31,42.805,6.029,0.015,-0.02,-0.014,107.0,108.0,99.0,13.4,1505.3,326.5,-0.7,1.8,2470.015,13.33,0.025,143.1
2019-07-09T07:35:32,42.805,6.029,-0.001,0.0,-0.019,105.0,107.0,101.0,13.4,1505.3,323.4,-0.7,1.8,2469.972,13.33,0.001,270.0
2019-07-09T07:38:33,42.805,6.029,0.021,-0.024,-0.071,104.0,105.0,99.0,13.4,1505.3,327.9,-0.7,1.8,2469.99,13.33,0.031,138.8
2019-07-09T07:41:34,42.805,6.029,0.021,-0.003,0.0,105.0,104.0,100.0,13.3,1505.3,324.8,-0.7,1.9,2469.998,13.33,0.021,98.1
2019-07-09T07:44:35,42.805,6.029,-0.018,-0.023,-0.019,103.0,106.0,99.0,13.3,1505.3,326.5,-0.7,1.8,2470.074,13.33,0.029,218.0
2019-07-09T07:47:36,42.805,6.029,0.011,-0.008,-0.028,104.0,106.0,101.0,13.4,1505.3,324.3,-0.7,1.9,2470.014,13.33,0.013,126.0
2019-07-09T07:50:37,42.805,6.029,-0.02,-0.026,-0.074,103.0,106.0,100.0,13.4,1505.3,327.7,-0.7,1.9,2470.026,13.33,0.032,217.6
2019-07-09T07:53:38,42.805,6.029,0.021,-0.011,-0.034,103.0,107.0,99.0,13.3,1505.3,325.7,-0.7,1.9,2470.037,13.33,0.023,117.6
2019-07-09T07:56:39,42.805,6.029,-0.008,-0.021,-0.026,104.0,106.0,100.0,13.3,1505.3,323.1,-0.7,1.8,2470.012,13.33,0.022,200.9
2019-07-09T07:59:40,42.805,6.029,-0.002,-0.029,-0.046,104.0,107.0,101.0,13.4,1505.3,327.2,-0.7,1.8,2470.047,13.33,0.029,183.9
2019-07-09T08:02:41,42.805,6.029,0.005,-0.027,-0.004,105.0,106.0,99.0,13.3,1505.3,324.2,-0.7,1.8,2470.003,13.33,0.027,169.5
2019-07-09T08:05:42,42.805,6.029,0.0,-0.024,-0.023,103.0,106.0,100.0,13.3,1505.3,325.3,-0.7,1.8,2469.96,13.33,0.024,180.0
2019-07-09T08:08:43,42.805,6.029,0.016,-0.021,-0.026,104.0,109.0,100.0,13.4,1505.3,326.0,-0.8,1.8,2470.019,13.33,0.026,142.7
2019-07-09T08:11:44,42.805,6.029,0.016,-0.023,-0.021,103.0,107.0,99.0,13.3,1505.3,324.6,-0.7,1.8,2470.018,13.33,0.028,145.2
2019-07-09T08:14:45,42.805,6.029,0.023,-0.028,-0.003,106.0,104.0,101.0,13.3,1505.3,327.0,-0.7,1.9,2469.946,13.33,0.036,140.6
2019-07-09T08:17:46,42.805,6.029,0.006,-0.036,0.008,103.0,106.0,100.0,13.3,1505.3,326.2,-0.7,1.8,2469.984,13.33,0.036,170.5
2019-07-09T08:20:47,42.805,6.029,0.018,-0.035,-0.021,104.0,105.0,100.0,13.4,1505.3,323.7,-0.7,1.9,2469.969,13.33,0.039,152.8
2019-07-09T08:23:48,42.805,6.029,0.02,-0.017,-0.015,104.0,106.0,99.0,13.4,1505.3,327.5,-0.7,1.8,2470.025,13.33,0.026,130.4
2019-07-09T08:26:49,42.805,6.029,-0.024,-0.043,-0.036,103.0,106.0,101.0,13.4,1505.3,325.0,-0.7,1.8,2470.0,13.33,0.049,209.2
2019-07-09T08:29:50,42.805,6.029,0.008,-0.035,-0.032,105.0,105.0,100.0,13.4,1505.3,323.7,-0.8,1.8,2469.983,13.33,0.035,167.1
2019-07-09T08:32:51,42.805,6.029,-0.005,-0.03,-0.03,104.0,106.0,100.0,13.4,1505.3,326.9,-0.7,1.8,2470.033,13.33,0.03,189.5
2019-07-09T08:35:52,42.805,6.029,0.017,-0.008,-0.011,104.0,108.0,100.0,13.4,1505.3,323.9,-0.8,1.8,2470.017,13.33,0.018,115.2
2019-07-09T08:38:53,42.805,6.029,0.023,-0.012,-0.001,105.0,106.0,103.0,13.3,1505.3,326.2,-0.7,1.8,2470.012,13.33,0.025,117.6
2019-07-09T08:41:54,42.805,6.029,0.003,-0.027,-0.06,104.0,107.0,100.0,13.4,1505.3,323.9,-0.7,1.9,2470.005,13.33,0.027,173.7
2019-07-09T08:44:55,42.805,6.029,0.006,-0.015,-0.011,104.0,106.0,100.0,13.4,1505.3,328.1,-0.7,1.8,2469.984,13.33,0.016,158.2
2019-07-09T08:47:56,42.805,6.029,-0.013,-0.011,-0.004,103.0,106.0,99.0,13.4,1505.3,325.4,-0.8,1.9,2470.009,13.33,0.017,229.8
2019-07-09T08:50:57,42.805,6.029,0.02,-0.006,0.011,106.0,107.0,99.0,13.4,1505.3,324.5,-0.7,1.8,2470.094,13.33,0.02,106.7
2019-07-09T08:53:58,42.805,6.029,0.018,-0.025,-0.008,104.0,107.0,100.0,13.3,1505.3,326.8,-0.7,1.8,2470.025,13.33,0.03,144.2
2019-07-09T08:56:59,42.805,6.029,-0.003,-0.02,-0.021,103.0,107.0,101.0,13.3,1505.3,323.6,-0.7,1.8,2470.024,13.33,0.02,188.5
2019-07-09T09:00:00,42.805,6.029,-0.02,-0.013,-0.068,103.0,107.0,100.0,13.4,1505.3,328.3,-0.7,1.8,2469.998,13.33,0.023,237.0
2019-07-09T09:03:01,42.805,6.029,-0.022,-0.022,-0.024,104.0,106.0,101.0,13.4,1505.3,325.3,-0.7,1.8,2470.017,13.33,0.031,225.0
2019-07-09T09:06:02,42.805,6.029,0.01,-0.02,-0.028,103.0,106.0,101.0,13.3,1505.3,323.2,-0.7,1.8,2470.027,13.33,0.022,153.4
2019-07-09T09:09:03,42.805,6.029,0.031,-0.033,0.017,106.0,105.0,99.0,13.3,1505.3,326.1,-0.7,1.8,2470.031,13.33,0.045,136.8
2019-07-09T09:12:04,42.805,6.029,0.009,-0.02,-0.025,105.0,105.0,99.0,13.4,1505.3,327.9,-0.7,1.8,2470.041,13.33,0.021,155.8
2019-07-09T09:15:05,42.805,6.029,0.005,-0.01,-0.011,104.0,107.0,101.0,13.4,1505.3,326.0,-0.7,1.8,2470.037,13.33,0.011,153.4
2019-07-09T09:18:06,42.805,6.029,-0.006,-0.008,-0.03,103.0,105.0,99.0,13.3,1505.3,324.7,-0.7,1.8,2469.991,13.33,0.01,216.9
2019-07-09T09:21:07,42.805,6.029,-0.005,-0.02,-0.013,103.0,106.0,102.0,13.4,1505.3,328.2,-0.7,1.9,2470.018,13.33,0.02,194.0
2019-07-09T09:24:08,42.805,6.029,-0.001,-0.019,-0.036,103.0,104.0,99.0,13.4,1505.3,324.4,-0.7,1.8,2470.022,13.33,0.019,183.0
2019-07-09T09:27:09,42.805,6.029,0.017,0.009,0.011,104.0,104.0,100.0,13.3,1505.3,323.5,-0.7,1.9,2470.048,13.33,0.019,62.1
2019-07-09T09:30:10,42.805,6.029,-0.003,-0.011,-0.001,105.0,105.0,100.0,13.4,1505.3,328.1,-0.7,1.9,2470.038,13.33,0.011,195.3
2019-07-09T09:33:11,42.805,6.029,-0.002,-0.023,-0.052,103.0,104.0,99.0,13.3,1505.3,325.1,-0.8,1.8,2470.059,13.33,0.023,185.0
2019-07-09T09:36:12,42.805,6.029,0.02,-0.006,0.013,103.0,105.0,100.0,13.4,1505.3,325.6,-0.7,1.8,2470.048,13.33,0.02,106.7